Flag for Germany Weather past 2 weeks in Magdeburg, Saxony-Anhalt, Germany

Now
54 °F

Overcast.


Feels Like: 54 °F
Forecast: 53 / 66 °F
Wind: 1 mph from South

Location: Magdeburg

Current Time: Aug 22, 2014 at 2:29:29 AM

Latest Report: Aug 22, 2014 at 2:00 AM


Visibility: 11 mi

Pressure: 29.98 "Hg

Humidity: 79%

Dew point: 47 °F

Location of MagdeburgLocation

Historic Weather in Magdeburg — Graph

°F

Magdeburg temperature yesterday

Maximum temperature yesterday: 67 °F (at 4:00 PM)
Minimum temperature yesterday: 47 °F (at 4:00 AM)
Average temperature yesterday: 56 °F

Past Weeks' High & Low Weather Summary

 TemperatureHumidityPressure
High83 °F (Aug 9, 1:00 PM)98% (Aug 8, 6:00 AM)30.03 "Hg (Aug 8, 6:00 AM)
Low47 °F (Aug 21, 4:00 AM)35% (Aug 11, 4:00 PM)29.62 "Hg (Aug 18, 3:00 PM)
Average63 °F71%29.86 "Hg
* Reported Aug 7 1:00 AM — Aug 22 1:00 AM, Magdeburg, Weather by CustomWeather, © 2014

Note: Actual official high and low records may vary slightly from our data, if they occured in-between our weather recording intervals... More about our weather records

Advertising

Magdeburg weather history for previous 24 hours

 ConditionsComfort  
Time TempWeatherWind HumidityBarometerVisibility
1:00 AM
Aug 22
54 °FOvercast.1 mph77%29.99 "Hg11 mi
12:00 AM52 °FOvercast.1 mph87%29.99 "Hg10 mi
11:00 PM
Aug 21
52 °FPassing clouds.1 mph86%30.00 "Hg7 mi
10:00 PM54 °FClear.1 mph79%29.99 "Hg17 mi
9:00 PM56 °FClear.1 mph74%29.99 "Hg12 mi
8:00 PM62 °FOvercast.1 mph55%29.98 "Hg22 mi
7:00 PM65 °FPartly sunny.2 mph43%29.98 "Hg31 mi
6:00 PM66 °FPartly sunny.2 mph42%29.98 "Hg25 mi
4:00 PM67 °FScattered clouds.3 mph38%29.99 "Hg37 mi
3:00 PM65 °FScattered clouds.5 mph38%30.00 "Hg37 mi
2:00 PM65 °FPassing clouds.5 mph44%30.01 "Hg31 mi
1:00 PM63 °FScattered clouds.3 mph51%30.02 "Hg25 mi
12:00 PM61 °FScattered clouds.3 mph59%30.02 "Hg22 mi
10:00 AM58 °FPassing clouds.2 mph71%30.03 "Hg13 mi
9:00 AM56 °FScattered clouds.3 mph77%30.02 "Hg16 mi
8:00 AM53 °FOvercast.1 mph83%30.02 "Hg16 mi
7:00 AM51 °FOvercast.1 mph87%30.01 "Hg16 mi
6:00 AM50 °FOvercast.1 mph88%30.00 "Hg19 mi
5:00 AM48 °FOvercast.1 mph92%30.00 "Hg11 mi
4:00 AM47 °FPassing clouds.1 mph89%30.00 "Hg9 mi
3:00 AM50 °FPassing clouds.1 mph88%30.01 "Hg16 mi
2:00 AM50 °FPassing clouds.1 mph87%30.00 "Hg19 mi
Weather by CustomWeather, © 2014

See weather overviewHow to use our weather pages